When you browse on this site, cookies collect data to enhance your experience and personalize the content and advertising you see.
Visit our Privacy Policy to learn more. By continuing to use the site, you agree to this use of cookies and data.
  • In Hungary
  • List of Countries
  • For 7 days
  • Water Temperature
  • Satellite Maps
  • Weather Map
  • News
  • Weather Widgets
  • user-avatar
    Login

    Hourly Weather Anuradhapura

    Today, 19 December, Wednesday

    Time Temperature Precipitation Wind Pressure Humidity
    00:00 +24°C° 0 mm 1 mps 751 mmHg 88%
    01:00 +23°C° 0 mm 1 mps 751 mmHg 89%
    02:00 +23°C° 0 mm 1 mps 751 mmHg 90%
    03:00 +23°C° 0 mm 1 mps 751 mmHg 91%
    04:00 +23°C° 0 mm 1 mps 751 mmHg 91%
    05:00 +23°C° 0 mm 2 mps 751 mmHg 92%
    06:00 +24°C° 0 mm 2 mps 752 mmHg 87%
    07:00 +26°C° 0 mm 2 mps 752 mmHg 82%
    08:00 +27°C° 0 mm 3 mps 753 mmHg 78%
    09:00 +29°C° 0 mm 3 mps 752 mmHg 71%
    10:00 +30°C° 0 mm 3 mps 752 mmHg 64%
    11:00 +33°C° 0 mm 3 mps 752 mmHg 57%
    12:00 +33°C° 0 mm 3 mps 751 mmHg 55%
    13:00 +33°C° 0 mm 3 mps 751 mmHg 54%
    14:00 +34°C° 0 mm 3 mps 750 mmHg 52%
    15:00 +31°C° 0 mm 3 mps 750 mmHg 58%
    16:00 +30°C° 0 mm 3 mps 750 mmHg 65%
    17:00 +29°C° 0 mm 3 mps 750 mmHg 72%
    18:00 +28°C° 0 mm 3 mps 751 mmHg 77%
    19:00 +26°C° 0 mm 3 mps 751 mmHg 82%
    20:00 +25°C° 0 mm 3 mps 752 mmHg 87%
    21:00 +25°C° 0 mm 2 mps 752 mmHg 89%
    22:00 +25°C° 0 mm 2 mps 752 mmHg 91%
    23:00 +24°C° 0 mm 2 mps 752 mmHg 93%

    Tomorrow, 20 December, Thursday

    Time Temperature Precipitation Wind Pressure Humidity
    00:00 +24°C° 0 mm 2 mps 752 mmHg 94%
    01:00 +24°C° 0 mm 2 mps 751 mmHg 94%
    02:00 +24°C° 0 mm 2 mps 751 mmHg 94%
    03:00 +24°C° 0 mm 2 mps 751 mmHg 94%
    04:00 +24°C° 0 mm 2 mps 751 mmHg 94%
    05:00 +24°C° 0 mm 2 mps 751 mmHg 94%
    06:00 +25°C° 0 mm 2 mps 751 mmHg 90%
    07:00 +26°C° 0 mm 2 mps 752 mmHg 86%
    08:00 +27°C° 0 mm 2 mps 752 mmHg 82%
    09:00 +28°C° 0 mm 2 mps 752 mmHg 77%
    10:00 +29°C° 0 mm 2 mps 752 mmHg 72%
    11:00 +31°C° 0 mm 2 mps 752 mmHg 67%
    12:00 +31°C° 0.2 mm 3 mps 751 mmHg 68%
    13:00 +31°C° 0.2 mm 3 mps 750 mmHg 68%
    14:00 +31°C° 0.2 mm 3 mps 750 mmHg 68%
    15:00 +30°C° 0.2 mm 3 mps 750 mmHg 71%
    16:00 +29°C° 0.2 mm 3 mps 750 mmHg 74%
    17:00 +28°C° 0.2 mm 2 mps 750 mmHg 77%
    18:00 +28°C° 0 mm 2 mps 750 mmHg 80%
    19:00 +27°C° 0 mm 2 mps 751 mmHg 83%
    20:00 +26°C° 0 mm 2 mps 751 mmHg 86%
    21:00 +26°C° 0 mm 2 mps 751 mmHg 87%
    22:00 +26°C° 0 mm 2 mps 751 mmHg 89%
    23:00 +25°C° 0 mm 1 mps 751 mmHg 91%

    Day after tomorrow, 21 December, Friday

    Time Temperature Precipitation Wind Pressure Humidity
    00:00 +25°C° 0 mm 1 mps 750 mmHg 92%
    01:00 +25°C° 0 mm 1 mps 750 mmHg 93%
    02:00 +25°C° 0 mm 1 mps 749 mmHg 94%
    03:00 +25°C° 0 mm 1 mps 750 mmHg 94%
    04:00 +25°C° 0 mm 1 mps 750 mmHg 95%
    05:00 +25°C° 0 mm 1 mps 750 mmHg 95%
    06:00 +26°C° 0.1 mm 1 mps 750 mmHg 93%
    07:00 +27°C° 0.1 mm 1 mps 751 mmHg 90%
    08:00 +27°C° 0.1 mm 1 mps 752 mmHg 87%
    09:00 +28°C° 0.7 mm 2 mps 752 mmHg 85%
    10:00 +29°C° 0.7 mm 2 mps 751 mmHg 83%
    11:00 +29°C° 0.7 mm 3 mps 751 mmHg 80%
    12:00 +29°C° 1.5 mm 3 mps 750 mmHg 81%
    13:00 +29°C° 1.5 mm 3 mps 749 mmHg 82%
    14:00 +29°C° 1.5 mm 3 mps 749 mmHg 83%
    15:00 +28°C° 2 mm 3 mps 749 mmHg 86%
    16:00 +28°C° 2 mm 3 mps 749 mmHg 89%
    17:00 +27°C° 2 mm 2 mps 749 mmHg 91%
    18:00 +27°C° 1.1 mm 2 mps 750 mmHg 92%
    19:00 +26°C° 1.1 mm 2 mps 750 mmHg 93%
    20:00 +26°C° 1.1 mm 2 mps 751 mmHg 94%
    21:00 +26°C° 0 mm 2 mps 751 mmHg 94%
    22:00 +26°C° 0 mm 2 mps 751 mmHg 95%
    23:00 +25°C° 0 mm 2 mps 750 mmHg 95%

    22 December, Saturday

    Time Temperature Precipitation Wind Pressure Humidity
    00:00 +25°C° 0 mm 2 mps 750 mmHg 96%
    01:00 +25°C° 0 mm 1 mps 749 mmHg 96%
    02:00 +25°C° 0 mm 1 mps 749 mmHg 96%
    03:00 +25°C° 0.1 mm 1 mps 749 mmHg 96%
    04:00 +25°C° 0.1 mm 1 mps 749 mmHg 96%
    05:00 +25°C° 0.1 mm 1 mps 749 mmHg 96%
    06:00 +26°C° 0.2 mm 1 mps 750 mmHg 93%
    07:00 +27°C° 0.2 mm 1 mps 750 mmHg 90%
    08:00 +28°C° 0.2 mm 2 mps 751 mmHg 87%
    09:00 +29°C° 1.3 mm 2 mps 751 mmHg 81%
    10:00 +30°C° 1.3 mm 2 mps 751 mmHg 76%
    11:00 +31°C° 1.3 mm 2 mps 751 mmHg 70%
    12:00 +31°C° 1.9 mm 1 mps 750 mmHg 71%
    13:00 +31°C° 1.9 mm 1 mps 749 mmHg 71%
    14:00 +31°C° 1.9 mm 1 mps 749 mmHg 71%
    15:00 +30°C° 2.7 mm 1 mps 749 mmHg 77%
    16:00 +29°C° 2.7 mm 1 mps 749 mmHg 83%
    17:00 +28°C° 2.7 mm 2 mps 749 mmHg 88%
    18:00 +27°C° 2.2 mm 2 mps 750 mmHg 90%
    19:00 +27°C° 2.2 mm 2 mps 751 mmHg 92%
    20:00 +26°C° 2.2 mm 2 mps 751 mmHg 93%
    21:00 +26°C° 0.4 mm 2 mps 751 mmHg 94%
    22:00 +26°C° 0.4 mm 2 mps 751 mmHg 95%
    23:00 +26°C° 0.4 mm 2 mps 751 mmHg 96%

    23 December, Sunday

    Time Temperature Precipitation Wind Pressure Humidity
    00:00 +26°C° 0 mm 2 mps 750 mmHg 96%
    01:00 +25°C° 0 mm 2 mps 750 mmHg 96%
    02:00 +25°C° 0 mm 2 mps 749 mmHg 97%
    03:00 +25°C° 0 mm 2 mps 750 mmHg 97%
    04:00 +25°C° 0 mm 2 mps 750 mmHg 97%
    05:00 +25°C° 0 mm 2 mps 750 mmHg 97%
    06:00 +26°C° 0 mm 2 mps 751 mmHg 93%
    07:00 +27°C° 0 mm 2 mps 751 mmHg 90%
    08:00 +28°C° 0 mm 2 mps 752 mmHg 87%
    09:00 +29°C° 0.1 mm 3 mps 752 mmHg 81%
    10:00 +30°C° 0.1 mm 3 mps 752 mmHg 75%
    11:00 +33°C° 0.1 mm 3 mps 751 mmHg 69%
    12:00 +31°C° 1.1 mm 3 mps 751 mmHg 71%
    13:00 +31°C° 1.1 mm 3 mps 750 mmHg 74%
    14:00 +31°C° 1.1 mm 3 mps 749 mmHg 76%
    15:00 +30°C° 0.9 mm 3 mps 749 mmHg 80%
    16:00 +29°C° 0.9 mm 3 mps 750 mmHg 84%
    17:00 +28°C° 0.9 mm 2 mps 750 mmHg 88%
    18:00 +27°C° 0.4 mm 2 mps 751 mmHg 91%
    19:00 +27°C° 0.4 mm 2 mps 751 mmHg 93%
    20:00 +26°C° 0.4 mm 2 mps 752 mmHg 95%
    21:00 +26°C° 0 mm 2 mps 752 mmHg 95%
    22:00 +26°C° 0 mm 2 mps 752 mmHg 96%
    23:00 +25°C° 0 mm 2 mps 751 mmHg 96%

    24 December, Monday

    Time Temperature Precipitation Wind Pressure Humidity
    00:00 +25°C° 0 mm 2 mps 751 mmHg 96%
    01:00 +25°C° 0 mm 2 mps 751 mmHg 97%
    02:00 +25°C° 0 mm 1 mps 750 mmHg 97%
    03:00 +25°C° 0 mm 1 mps 750 mmHg 97%
    04:00 +25°C° 0 mm 1 mps 750 mmHg 97%
    05:00 +25°C° 0 mm 1 mps 751 mmHg 97%
    06:00 +26°C° 0 mm 1 mps 751 mmHg 93%
    07:00 +27°C° 0 mm 2 mps 752 mmHg 90%
    08:00 +28°C° 0 mm 2 mps 752 mmHg 86%
    09:00 +29°C° 0 mm 2 mps 752 mmHg 79%
    10:00 +30°C° 0 mm 2 mps 752 mmHg 72%
    11:00 +32°C° 0 mm 2 mps 751 mmHg 65%
    12:00 +32°C° 0 mm 2 mps 751 mmHg 65%
    13:00 +33°C° 0 mm 3 mps 750 mmHg 64%
    14:00 +33°C° 0 mm 3 mps 749 mmHg 64%
    15:00 +31°C° 0.1 mm 3 mps 749 mmHg 69%
    16:00 +30°C° 0.1 mm 3 mps 750 mmHg 75%
    17:00 +29°C° 0.1 mm 2 mps 750 mmHg 80%
    18:00 +28°C° 0 mm 2 mps 750 mmHg 84%
    19:00 +27°C° 0 mm 2 mps 751 mmHg 87%
    20:00 +26°C° 0 mm 2 mps 751 mmHg 91%
    21:00 +26°C° 0 mm 2 mps 751 mmHg 92%
    22:00 +26°C° 0 mm 2 mps 751 mmHg 94%
    23:00 +25°C° 0 mm 2 mps 751 mmHg 95%
    Show more